DW2059 Weather Reports


time (UTC)temp
F
wind
direction
speed
knots
gust
knots
rain 1hr
in
rain 24hr
in
rain mn
in
humidity
%
barometer
mb
20260506083412 58 360 0.0 0.0 0.00 0.00 0.00 87 1019.9
20260506081911 58 360 0.0 0.0 0.00 0.00 0.00 87 1020.0
20260506080411 58 360 0.0 0.0 0.00 0.00 0.00 87 1019.9
20260506073409 58 360 0.0 0.0 0.00 0.00 0.00 87 1019.7
20260506071907 58 360 0.0 0.0 0.00 0.00 0.00 86 1019.5
20260506070407 58 360 0.0 0.0 0.00 0.00 0.00 86 1019.4
20260506061903 58 360 0.0 0.0 0.00 0.00 0.09 86 1019.3
20260506060402 58 360 0.0 0.0 0.00 0.00 0.09 86 1019.2
20260506050358 58 360 0.0 0.0 0.00 0.00 0.09 85 1018.9
20260506044857 58 360 0.0 0.0 0.00 0.00 0.09 85 1018.8
20260506043356 58 360 0.0 0.0 0.00 0.00 0.09 84 1018.7
20260506041855 58 360 0.0 0.0 0.00 0.00 0.09 84 1018.4
20260506040354 58 360 0.0 0.0 0.00 0.00 0.09 84 1018.2
20260506034853 58 360 0.0 0.0 0.00 0.00 0.09 83 1018.1
20260506033352 59 360 0.0 0.9 0.00 0.00 0.09 82 1017.9
20260506031851 59 360 0.0 0.9 0.00 0.00 0.09 82 1017.8
20260506030350 59 360 0.0 0.9 0.00 0.00 0.09 81 1017.6
20260506024849 59 360 0.0 0.0 0.00 0.00 0.09 81 1017.5
20260506023348 60 360 0.0 1.7 0.00 0.00 0.09 80 1017.3
20260506021847 60 360 0.0 1.7 0.00 0.00 0.09 80 1017.1
20260506020346 60 360 0.9 2.6 0.00 0.00 0.09 79 1017.4
20260506014845 60 360 0.9 2.6 0.00 0.00 0.09 79 1017.3
20260506013344 61 360 0.9 2.6 0.00 0.00 0.09 79 1017.3
20260506011843 61 360 0.9 4.3 0.00 0.00 0.09 78 1017.2
20260506010342 62 360 0.9 3.5 0.00 0.00 0.09 79 1017.1
20260506004841 62 80 1.7 5.2 0.00 0.00 0.09 78 1017.2
20260506003340 62 360 0.9 2.6 0.00 0.00 0.09 78 1017.0
20260506000338 62 360 0.0 2.6 0.00 0.00 0.09 77 1017.0
20260505234837 62 360 0.9 2.6 0.00 0.00 0.09 76 1017.1
20260505233336 63 360 0.9 3.5 0.00 0.00 0.09 75 1017.1
20260505231835 63 175 0.9 3.5 0.00 0.00 0.09 75 1017.2
20260505230334 64 130 0.0 4.3 0.00 0.00 0.09 74 1017.1
20260505224833 64 130 0.0 7.8 0.00 0.00 0.09 73 1017.1
20260505223331 65 163 0.9 3.5 0.00 0.00 0.09 72 1017.1
20260505221831 65 292 0.9 4.3 0.00 0.00 0.09 72 1017.1
20260505220330 65 268 0.0 6.1 0.00 0.00 0.09 73 1017.1
20260505214828 64 77 1.7 5.2 0.00 0.00 0.09 71 1017.1
20260505213327 66 41 1.7 5.2 0.00 0.00 0.09 72 1017.3
20260505211827 66 9 2.6 7.0 0.00 0.00 0.09 72 1017.4
20260505210325 66 119 1.7 7.8 0.00 0.00 0.09 72 1017.4
20260505204824 66 223 1.7 7.8 0.00 0.00 0.09 70 1017.2
20260505203323 66 299 2.6 7.0 0.00 0.00 0.09 72 1017.3
20260505201823 66 355 3.5 5.2 0.00 0.00 0.09 75 1017.4
20260505200321 65 146 0.9 7.0 0.00 0.00 0.08 77 1017.3
20260505194820 64 54 2.6 6.1 0.00 0.00 0.08 82 1017.4
20260505193319 62 291 3.5 4.3 0.00 0.00 0.08 85 1017.5
20260505191818 61 360 1.7 4.3 0.00 0.00 0.08 88 1017.5
20260505184816 59 360 0.9 3.5 0.00 0.00 0.08 90 1017.4
20260505183315 59 360 2.6 3.5 0.00 0.00 0.08 90 1017.4
20260505181814 60 360 2.6 4.3 0.00 0.00 0.08 91 1017.3
20260505173311 58 360 0.9 2.6 0.00 0.00 0.08 91 1017.0
20260505171810 58 360 0.0 1.7 0.00 0.00 0.08 91 1016.9
20260505170309 57 360 1.7 1.7 0.00 0.00 0.08 91 1016.7
20260505164808 56 360 0.0 1.7 0.00 0.00 0.08 91 1016.8
20260505163307 56 360 0.0 1.7 0.00 0.00 0.08 91 1016.7
20260505161806 55 360 0.0 0.9 0.00 0.00 0.08 91 1016.7
20260505153303 55 360 0.0 0.9 0.00 0.00 0.08 91 1016.5
20260505151802 55 360 0.0 0.0 0.00 0.00 0.08 91 1016.3
20260505150301 54 360 0.0 0.0 0.00 0.00 0.08 91 1016.2
20260505130253 54 360 0.0 0.0 0.00 0.00 0.08 90 1015.7
20260505124752 54 360 0.0 0.0 0.00 0.00 0.08 90 1015.8
20260505123251 54 360 0.0 0.0 0.00 0.00 0.08 90 1015.8
20260505120248 54 360 0.0 0.9 0.00 0.00 0.08 90 1015.7
20260505114747 54 360 0.0 0.9 0.00 0.00 0.08 90 1015.8
20260505113247 54 360 0.0 0.0 0.00 0.00 0.08 90 1016.0
20260505110245 54 360 0.0 0.0 0.00 0.00 0.08 89 1015.8
20260505101741 54 360 0.0 0.0 0.00 0.00 0.08 89 1015.8
20260505094739 54 33 0.0 0.0 0.00 0.00 0.07 88 1015.9
20260505093238 54 33 0.0 0.0 0.00 0.00 0.07 88 1016.1
20260505091737 54 33 0.0 0.9 0.00 0.00 0.07 88 1016.3
20260505090236 54 33 0.0 0.9 0.00 0.00 0.06 87 1016.3
20260505084735 54 360 0.0 0.0 0.00 0.00 0.05 87 1016.3